EW0393 Weather Reports


time (UTC)temp
C
wind
direction
speed
KPH
gust
KPH
rain 1hr
cm
rain 24hr
cm
rain mn
cm
humidity
%
barometer
mb
20260506044717 5 307 11.3 17.7 0.00 0.00 0.00 89 1011.2
20260506043819 5 305 11.3 17.7 0.00 0.00 0.00 89 1011.2
20260506042922 5 305 11.3 16.1 0.00 0.00 0.00 89 1011.2
20260506041803 5 304 8.0 14.5 0.00 0.00 0.00 88 1011.2
20260506040903 5 306 8.0 16.1 0.00 0.00 0.00 88 1011.3
20260506040003 5 308 8.0 16.1 0.00 0.00 0.00 88 1011.4
20260506035403 5 308 9.7 16.1 0.00 0.00 0.00 88 1011.4
20260506034503 5 306 9.7 16.1 0.00 0.00 0.00 87 1011.5
20260506033603 5 296 9.7 14.5 0.00 0.00 0.00 86 1011.3
20260506032703 6 297 8.0 12.9 0.00 0.00 0.00 86 1011.4
20260506031803 6 302 6.4 12.9 0.00 0.00 0.00 85 1011.5
20260506031117 6 311 6.4 12.9 0.00 0.00 0.00 85 1011.6
20260506030004 6 311 8.0 12.9 0.00 0.00 0.00 85 1011.8
20260506025403 6 310 8.0 14.5 0.00 0.00 0.00 85 1011.9
20260506024503 6 312 8.0 16.1 0.00 0.00 0.00 84 1011.9
20260506023603 7 321 9.7 16.1 0.00 0.00 0.00 84 1011.9
20260506022703 7 320 9.7 17.7 0.00 0.00 0.00 83 1011.9
20260506021803 7 323 11.3 19.3 0.00 0.00 0.00 82 1011.9
20260506020903 7 329 11.3 19.3 0.00 0.00 0.00 82 1011.9
20260506020003 8 331 14.5 19.3 0.00 0.00 0.00 82 1012.0
20260506015403 8 331 11.3 19.3 0.00 0.00 0.00 82 1012.0
20260506014503 8 327 11.3 19.3 0.00 0.00 0.00 81 1012.0
20260506013603 8 327 11.3 17.7 0.00 0.00 0.00 81 1012.0
20260506012703 8 329 9.7 19.3 0.00 0.00 0.00 81 1012.0
20260506011803 8 327 9.7 19.3 0.00 0.00 0.00 81 1012.0
20260506011118 8 319 9.7 19.3 0.00 0.00 0.00 82 1011.9
20260506010004 8 325 9.7 16.1 0.00 0.00 0.00 82 1012.0
20260506005403 8 323 8.0 14.5 0.00 0.00 0.00 82 1012.1
20260506004504 8 336 8.0 14.5 0.00 0.00 0.00 82 1012.1
20260506003817 8 334 8.0 14.5 0.00 0.00 0.00 83 1012.1
20260506002919 8 342 6.4 14.5 0.00 0.00 0.00 83 1012.1
20260506001803 9 320 6.4 16.1 0.00 0.00 0.00 83 1012.1
20260506001119 9 342 6.4 16.1 0.00 0.00 0.00 83 1012.1
20260506000003 9 358 9.7 16.1 0.00 0.00 0.00 84 1012.1
20260505235403 9 356 8.0 16.1 0.00 0.00 0.00 84 1012.1
20260505234503 9 342 6.4 12.9 0.00 0.00 0.00 84 1012.1
20260505233603 9 341 8.0 17.7 0.00 0.00 0.00 84 1012.2
20260505232703 9 348 9.7 17.7 0.00 0.00 0.00 84 1012.3
20260505231803 9 343 9.7 17.7 0.00 0.00 0.00 84 1012.3
20260505230903 9 343 9.7 17.7 0.00 0.00 0.00 84 1012.3
20260505230007 9 341 9.7 14.5 0.00 0.00 0.00 84 1012.3
20260505225618 9 339 8.0 14.5 0.00 0.00 0.00 84 1012.3
20260505224503 9 331 8.0 16.1 0.00 0.00 0.00 83 1012.3
20260505223603 9 335 8.0 16.1 0.00 0.00 0.00 83 1012.4
20260505222703 9 340 8.0 14.5 0.00 0.00 0.00 83 1012.4
20260505221803 9 343 6.4 14.5 0.00 0.00 0.00 83 1012.5
20260505220903 9 343 6.4 12.9 0.00 0.00 0.00 83 1012.5
20260505220004 9 352 6.4 14.5 0.00 0.00 0.00 82 1012.4
20260505215403 9 354 8.0 14.5 0.00 0.00 0.00 82 1012.3
20260505214503 9 4 9.7 25.7 0.00 0.00 0.00 82 1012.4
20260505213603 9 16 11.3 25.7 0.00 0.00 0.00 82 1012.4
20260505212703 9 360 8.0 25.7 0.00 0.00 0.00 81 1012.5
20260505211803 10 354 4.8 9.7 0.00 0.00 0.00 80 1012.5
20260505210903 10 354 6.4 17.7 0.00 0.00 0.00 80 1012.5
20260505210003 10 358 9.7 17.7 0.00 0.00 0.00 80 1012.5
20260505205403 10 359 9.7 19.3 0.00 0.00 0.00 80 1012.5
20260505204503 10 1 9.7 19.3 0.00 0.00 0.00 79 1012.5
20260505203603 10 11 11.3 20.9 0.00 0.00 0.00 79 1012.5
20260505202703 10 2 12.9 20.9 0.00 0.00 0.00 78 1012.5
20260505201803 10 4 12.9 20.9 0.00 0.00 0.00 77 1012.5
20260505200903 11 7 14.5 22.5 0.00 0.00 0.00 77 1012.3
20260505200003 11 358 12.9 22.5 0.00 0.00 0.00 78 1012.3
20260505195620 11 1 11.3 22.5 0.00 0.00 0.00 78 1012.2
20260505194503 11 3 9.7 19.3 0.00 0.00 0.00 79 1012.0
20260505193603 11 358 9.7 19.3 0.00 0.00 0.00 80 1011.9
20260505192703 11 360 8.0 17.7 0.00 0.00 0.00 81 1011.8
20260505191803 11 358 8.0 17.7 0.00 0.00 0.00 82 1011.7
20260505190903 11 357 6.4 12.9 0.00 0.00 0.00 83 1011.7
20260505190219 11 3 6.4 12.9 0.00 0.00 0.00 83 1011.6
20260505185403 11 14 6.4 12.9 0.00 0.00 0.00 83 1011.5
20260505184503 11 17 4.8 11.3 0.00 0.00 0.00 83 1011.6
20260505183603 11 16 4.8 16.1 0.00 0.00 0.00 83 1011.4
20260505182703 11 17 8.0 17.7 0.00 0.00 0.00 81 1011.5
20260505182020 11 15 9.7 16.1 0.00 0.00 0.00 80 1011.6
20260505180903 12 16 11.3 17.7 0.00 0.00 0.00 78 1011.3
20260505180003 12 14 12.9 20.9 0.00 0.00 0.00 77 1011.3
20260505175403 12 10 12.9 20.9 0.00 0.00 0.00 76 1011.4
20260505174503 12 13 12.9 20.9 0.00 0.00 0.00 74 1011.4
20260505173603 13 16 9.7 17.7 0.00 0.00 0.00 72 1011.3
20260505172918 13 9 8.0 17.7 0.00 0.00 0.00 71 1011.4
20260505171803 13 106 1.6 4.8 0.00 0.00 0.00 69 1011.2
20260505170903 13 106 1.6 6.4 0.00 0.00 0.00 69 1011.3
20260505170004 13 106 3.2 6.4 0.00 0.00 0.00 68 1011.3
20260505165617 13 106 1.6 6.4 0.00 0.00 0.00 68 1011.3
20260505164719 13 112 0.0 4.8 0.00 0.00 0.00 68 1011.1
20260505163603 14 128 1.6 8.0 0.00 0.00 0.00 67 1011.2
20260505162703 14 138 3.2 12.9 0.00 0.00 0.00 67 1011.1
20260505161803 14 129 3.2 12.9 0.00 0.00 0.00 66 1011.2
20260505160903 14 133 4.8 11.3 0.00 0.00 0.00 65 1011.2
20260505152703 15 145 6.4 12.9 0.00 0.00 0.00 62 1011.1
20260505151803 15 129 3.2 12.9 0.00 0.00 0.00 63 1011.1
20260505150903 15 139 4.8 12.9 0.00 0.00 0.00 61 1011.2
20260505124717 17 10 1.6 19.3 0.00 0.00 0.00 49 1011.9
20260505123819 18 26 8.0 19.3 0.00 0.00 0.00 48 1012.0
20260505122703 21 33 3.2 19.3 0.00 0.00 0.00 43 1012.0
20260505121803 21 48 6.4 16.1 0.00 0.00 0.00 45 1011.9
20260505121121 21 20 3.2 16.1 0.00 0.00 0.00 46 1011.9
20260505120004 20 9 6.4 17.7 0.00 0.00 0.00 49 1011.9
20260505115403 19 43 6.4 17.7 0.00 0.00 0.00 51 1012.0
20260505114717 18 75 3.2 16.1 0.00 0.00 0.00 49 1012.0
20260505113603 20 358 4.8 16.1 0.00 0.00 0.00 46 1012.1
20260505112703 20 26 6.4 16.1 0.00 0.00 0.00 47 1012.2
20260505111803 20 53 4.8 14.5 0.00 0.00 0.00 54 1012.4
20260505110903 18 56 4.8 14.5 0.00 0.00 0.00 50 1012.1
20260505101803 17 45 4.8 16.1 0.00 0.00 0.00 58 1012.5
20260505100903 17 16 4.8 16.1 0.00 0.00 0.00 56 1012.5
20260505100220 17 14 4.8 16.1 0.00 0.00 0.00 56 1012.6
20260505095621 17 41 6.4 16.1 0.00 0.00 0.00 58 1012.7
20260505094503 17 5 8.0 14.5 0.00 0.00 0.00 59 1012.8
20260505093603 16 3 6.4 14.5 0.00 0.00 0.00 60 1012.7
20260505092703 16 351 6.4 14.5 0.00 0.00 0.00 60 1012.6
20260505091803 15 17 6.4 14.5 0.00 0.00 0.00 62 1012.5
20260505090903 15 3 8.0 12.9 0.00 0.00 0.00 65 1012.5
20260505090003 15 357 8.0 14.5 0.00 0.00 0.00 66 1012.6
20260505085403 15 2 8.0 14.5 0.00 0.00 0.00 67 1012.7
20260505084719 14 6 8.0 14.5 0.00 0.00 0.00 68 1012.7
20260505083603 14 11 9.7 14.5 0.00 0.00 0.00 71 1012.7
20260505082703 14 350 8.0 14.5 0.00 0.00 0.00 72 1012.7
20260505081803 13 344 9.7 14.5 0.00 0.00 0.00 72 1012.9
20260505081119 13 358 9.7 14.5 0.00 0.00 0.00 71 1012.9
20260505080004 13 349 8.0 19.3 0.00 0.00 0.00 70 1012.8
20260505075617 14 356 8.0 19.3 0.00 0.00 0.00 71 1012.7
20260505074503 15 355 11.3 19.3 0.00 0.00 0.00 70 1012.8
20260505073603 15 3 8.0 16.1 0.00 0.00 0.00 72 1012.7
20260505072703 14 22 6.4 16.1 0.00 0.00 0.00 74 1012.6
20260505071803 13 356 8.0 16.1 0.00 0.00 0.00 78 1012.8
20260505070903 12 355 6.4 14.5 0.00 0.00 0.00 80 1013.0
20260505070004 11 356 6.4 12.9 0.00 0.00 0.00 81 1013.0
20260505065403 11 351 6.4 11.3 0.00 0.00 0.00 82 1013.0
20260505064720 11 360 6.4 11.3 0.00 0.00 0.00 84 1013.0
20260505063818 11 6 4.8 8.0 0.00 0.00 0.00 85 1013.1
20260505062920 10 13 3.2 6.4 0.00 0.00 0.00 86 1013.0
20260505061803 10 331 3.2 6.4 0.00 0.00 0.00 88 1013.2
20260505060903 10 319 1.6 4.8 0.00 0.00 0.00 90 1013.1
20260505060217 9 319 0.0 1.6 0.00 0.00 0.00 90 1012.9
20260505055403 8 319 0.0 6.4 0.00 0.00 0.00 91 1013.1
20260505054503 8 313 3.2 6.4 0.00 0.00 0.00 91 1013.1
20260505053603 7 309 3.2 4.8 0.00 0.00 0.00 91 1012.8
20260505052703 7 308 0.0 4.8 0.00 0.00 0.00 91 1012.9
20260505051803 7 308 0.0 1.6 0.00 0.00 0.00 91 1012.9
20260505050903 6 308 0.0 1.6 0.00 0.00 0.00 91 1012.8
20260505050218 6 308 0.0 1.6 0.00 0.00 0.00 91 1012.8